SNEAK12 KROA-KDAN

Flight info

Callsign SNEAK12
Flight time 0h 19m
Altitude 15000
Route SBV/N0301F140 LANTA
Aircraft V22/M-SDE2E3FGRY/H

Departure

Time 2026-05-07 23:32
Airport Roanoke–Blacksburg Regional Airport (KROA)

Arrival

Time 2026-05-07 23:51
Airport Danville Regional Airport (KDAN)
Time Latitude Longitude Altitude Speed Heading
2026-05-07 23:29 37.32091 -79.97473 1179 ft 2 kts 275°
2026-05-07 23:29 37.32098 -79.97487 1180 ft 0 kts 322°
2026-05-07 23:31 37.32094 -79.97481 1180 ft 0 kts 322°
2026-05-07 23:31 37.32105 -79.97486 1176 ft 2 kts 321°
2026-05-07 23:31 37.32114 -79.97485 1196 ft 10 kts 320°
2026-05-07 23:32 37.32123 -79.97490 1221 ft 3 kts 319°
2026-05-07 23:32 37.32237 -79.97588 1241 ft 49 kts 327°
2026-05-07 23:32 37.32713 -79.97959 1678 ft 112 kts 326°
2026-05-07 23:32 37.33127 -79.98733 1866 ft 112 kts 263°
2026-05-07 23:33 37.32527 -79.99212 1880 ft 116 kts 168°
2026-05-07 23:33 37.31844 -79.98664 1970 ft 117 kts 144°
2026-05-07 23:33 37.31175 -79.98064 2113 ft 118 kts 143°
2026-05-07 23:33 37.30675 -79.97406 1845 ft 100 kts 108°
2026-05-07 23:34 37.30900 -79.96689 1735 ft 99 kts 20°
2026-05-07 23:34 37.31430 -79.96943 1329 ft 81 kts 319°
2026-05-07 23:34 37.31866 -79.97308 1174 ft 67 kts 324°
2026-05-07 23:34 37.32307 -79.97617 1238 ft 77 kts 321°
2026-05-07 23:35 37.32724 -79.97980 1404 ft 78 kts 326°
2026-05-07 23:35 37.33075 -79.98832 2274 ft 145 kts 279°
2026-05-07 23:35 37.32749 -80.00254 2529 ft 197 kts 231°
2026-05-07 23:35 37.31383 -80.00367 3205 ft 228 kts 152°
2026-05-07 23:36 37.30241 -79.98989 4288 ft 227 kts 129°
2026-05-07 23:36 37.29212 -79.97448 5453 ft 240 kts 129°
2026-05-07 23:36 37.28102 -79.95799 6446 ft 254 kts 131°
2026-05-07 23:36 37.26939 -79.94081 7433 ft 265 kts 133°
2026-05-07 23:37 37.25717 -79.92275 8425 ft 275 kts 134°
2026-05-07 23:37 37.24459 -79.90424 9464 ft 284 kts 136°
2026-05-07 23:37 37.23107 -79.88459 10058 ft 301 kts 136°
2026-05-07 23:37 37.21732 -79.86466 11032 ft 302 kts 137°
2026-05-07 23:38 37.20348 -79.84463 12029 ft 305 kts 137°
2026-05-07 23:38 37.18941 -79.82532 13004 ft 298 kts 141°
2026-05-07 23:38 37.17491 -79.80617 13954 ft 311 kts 140°
2026-05-07 23:38 37.15978 -79.78547 14452 ft 334 kts 139°
2026-05-07 23:39 37.14360 -79.76324 14736 ft 354 kts 139°
2026-05-07 23:39 37.12674 -79.74027 15193 ft 360 kts 139°
2026-05-07 23:39 37.10981 -79.71668 15312 ft 372 kts 138°
2026-05-07 23:39 37.09305 -79.69123 15104 ft 387 kts 129°
2026-05-07 23:40 37.08183 -79.66018 14992 ft 397 kts 108°
2026-05-07 23:40 37.07864 -79.62583 14949 ft 399 kts 92°
2026-05-07 23:40 37.07819 -79.59106 14928 ft 397 kts 96°
2026-05-07 23:40 37.07155 -79.55842 14904 ft 381 kts 117°
2026-05-07 23:41 37.05939 -79.52923 14907 ft 379 kts 123°
2026-05-07 23:41 37.04651 -79.50053 14891 ft 376 kts 128°
2026-05-07 23:41 37.02979 -79.47617 14910 ft 369 kts 141°
2026-05-07 23:41 37.01171 -79.45352 14919 ft 367 kts 142°
2026-05-07 23:42 36.99338 -79.43108 14913 ft 369 kts 142°
2026-05-07 23:42 36.97500 -79.40876 14907 ft 367 kts 143°
2026-05-07 23:42 36.95660 -79.38649 14909 ft 370 kts 143°
2026-05-07 23:42 36.93820 -79.36425 14912 ft 367 kts 143°
2026-05-07 23:43 36.91978 -79.34199 14907 ft 370 kts 143°
2026-05-07 23:43 36.90138 -79.31980 14910 ft 368 kts 143°
2026-05-07 23:43 36.88294 -79.29753 14910 ft 368 kts 143°
2026-05-07 23:43 36.86439 -79.27528 14916 ft 368 kts 144°
2026-05-07 23:44 36.84369 -79.25779 14907 ft 353 kts 164°
2026-05-07 23:44 36.82069 -79.24929 14923 ft 342 kts 175°
2026-05-07 23:44 36.79787 -79.24124 14927 ft 346 kts 173°
2026-05-07 23:44 36.77412 -79.23615 14930 ft 341 kts 182°
2026-05-07 23:45 36.75078 -79.23394 14932 ft 340 kts 186°
2026-05-07 23:45 36.72711 -79.23281 14917 ft 341 kts 187°
2026-05-07 23:45 36.70342 -79.23205 14923 ft 340 kts 187°
2026-05-07 23:45 36.67976 -79.23160 14928 ft 338 kts 189°
2026-05-07 23:46 36.65634 -79.23264 14928 ft 336 kts 191°
2026-05-07 23:46 36.63307 -79.23476 14932 ft 335 kts 193°
2026-05-07 23:46 36.60998 -79.23778 14935 ft 333 kts 195°
2026-05-07 23:46 36.58704 -79.24152 14936 ft 332 kts 196°
2026-05-07 23:47 36.56421 -79.24561 14935 ft 331 kts 198°
2026-05-07 23:47 36.54168 -79.25115 14922 ft 329 kts 200°
2026-05-07 23:47 36.52018 -79.25699 14883 ft 280 kts 201°
2026-05-07 23:47 36.50339 -79.26129 13839 ft 225 kts 204°
2026-05-07 23:48 36.48845 -79.26713 11506 ft 228 kts 214°
2026-05-07 23:48 36.47833 -79.28011 10420 ft 225 kts 252°
2026-05-07 23:48 36.47943 -79.30077 7469 ft 259 kts 274°
2026-05-07 23:48 36.47848 -79.32500 6321 ft 281 kts 261°
2026-05-07 23:49 36.47786 -79.34770 5766 ft 262 kts 284°
2026-05-07 23:49 36.49080 -79.36338 4062 ft 278 kts 349°
2026-05-07 23:49 36.50891 -79.35721 2592 ft 242 kts 18°
2026-05-07 23:49 36.52271 -79.35293 2164 ft 176 kts
2026-05-07 23:50 36.53342 -79.35072 1790 ft 130 kts
2026-05-07 23:50 36.54092 -79.34899 1311 ft 113 kts 12°
2026-05-07 23:50 36.54791 -79.34685 983 ft 88 kts 15°
2026-05-07 23:50 36.55353 -79.34489 834 ft 84 kts 15°
2026-05-07 23:51 36.55936 -79.34288 714 ft 87 kts 17°
2026-05-07 23:51 36.56512 -79.34073 599 ft 82 kts 17°
2026-05-07 23:51 36.56938 -79.33908 618 ft 57 kts 17°
2026-05-07 23:51 36.57221 -79.33787 697 ft 7 kts 19°
2026-05-07 23:52 36.57303 -79.33815 647 ft 36 kts 346°
2026-05-07 23:52 36.57569 -79.33764 784 ft 74 kts 51°
2026-05-07 23:52 36.57604 -79.34075 820 ft 143 kts 178°
2026-05-07 23:52 36.57714 -79.34238 900 ft 143 kts 223°
2026-05-07 23:53 36.57519 -79.33828 667 ft 93 kts 357°
2026-05-07 23:53 36.57717 -79.33838 737 ft 25 kts 21°
2026-05-07 23:53 36.57668 -79.33902 597 ft 10 kts 337°
2026-05-07 23:53 36.57676 -79.33905 581 ft 1 kts 339°
2026-05-07 23:54 36.57675 -79.33904 581 ft 0 kts 341°